sat.trackr.live / text

‹ back to catalog

STARLINK-3751

NORAD 52289 · 2022-041AE

PAYLOAD ACTIVE UNKNOWN

§ Identity

Operator
Country
US
Launch date
2022-04-21
Launch site
AFETR
Launch vehicle
Mass (kg)
RCS (m²)

Purposes: comms

External: N2YO · Heavens-Above · Gunter

§ Orbital elements

Epoch: 2026-05-25T02:06:12.872736Z

Period
95.44 min
Inclination
53.2139°
Eccentricity
0.0001121
Mean motion
15.08845164 rev/d
Perigee alt
539.0 km
Apogee alt
540.5 km
Semi-major
6,917.9 km
B*
-9.0035e-5
RAAN
116.1555°
Arg perigee
72.8158°
Mean anomaly
287.2957°
Rev number
22,603

§ Raw data

STARLINK-37511 52289U 22041AE  26145.08764899 -.00001721  00000+0 -90035-4 0  99972 52289  53.2139 116.1555 0001121  72.8158 287.2957 15.08845164226036

JSON: /api/v1/satellites/52289 · /tle

For live sub-satellite position, see the globe view (requires WebGL).

§ Visibility from observer

Set your observer location to see the next 7 days of passes ≥ 10°. The values pass through the URL so the page stays shareable.

No JS? Fill the form by hand. The geolocation button needs JavaScript.